Location: Unspecified
(43.4354°N, 0.0000°E)
Time: 04:18:27
(UTC+00:00)

Transit 2A - Pass Details

Date: 22 June 2019
Orbit: 594 x 964 km, 66.7° (Epoch: 20 July)

Event Time Altitude Azimuth Distance (km) Brightness Sun altitude
Rises 09:09:25 0° 327° (NNW) 3,444 9.1 49.4°
Reaches altitude 10° 09:12:01 10° 327° (NNW) 2,447 8.4 49.9°
Maximum altitude 09:17:38 83° 241° (WSW) 779 6.9 50.9°
Drops below altitude 10° 09:22:38 10° 154° (SSE) 2,181 8.9 51.7°
Sets 09:24:50 0° 153° (SSE) 3,043 9.5 52.1°
